FENGYUN 1C DEB, 31371

Orbit data source: Space-Track

FENGYUN 1C DEB, 31371 is space debris in SSO originally from a launch on Mon, 10 May 1999 UTC launched from the Taiyaun Space Center, China (TSC). Fengyun 1C debris stems from the Chinese weather satellite Fengyun-1C, which was intentionally destroyed by a Chinese anti-satellite missile in 2007. This event dramatically increased the amount of space debris, with thousands of trackable fragments posing hazards to satellites and human spaceflight. The Fengyun 1C debris cloud has become a focal point in discussions about space sustainability and the need for international regulations to prevent the creation of new debris.

Loading next visibility...
Identifier
31371, 1999-025BSB
Orbit
SSO
Country
Flag of CNCN / PRC
Related business
Manufacturer
Unknown
Mission
Spacecraft
Bus & Motor
Unknown
Mass
Unknown
Launch date (UTC)
1999-05-10 (27 years ago)
Launch vehicle
Unknown
Launch site
Taiyaun Space Center, China (TSC)
Object type
Payload
Rocket body
Debris
Shape & HBR
Unknown shape, 0.1 m
Radar Cross Section
Medium (>0.1 m² and <1 m²)

Expand to show TLE details & history
Last TLE update: 4 days ago

TLE from 4 days ago
0 FENGYUN 1C DEB
1 31371U 99025BSB 26251.35864001  .00001022  00000-0  64285-3 0  9996
2 31371  98.7436 279.8334 0077369 209.4664 150.2132 14.05091911995326
Epoch: 2026-09-08T08:36Z
TLE epoch observation values (Epoch: 2026-09-08T08:36:26.496Z)
Latitude
-0.00004°
Longitude
163.29681°
Altitude
927.935 km
Speed
7.363 km/s
True Right ascension
18h 39m 20s
True Declination
0° 00' 00"
Sunlit
Object was in daylight at epoch
Visualization orbit readout
Latitude
Unknown
Longitude
Unknown
Altitude
Unknown
Speed
Unknown
Apparent Right ascension
Unknown
Apparent Declination
Unknown
Sunlit
N/A
Visualization observer readout
Local Sidereal Time
03:49:01
Azimuth
Unknown
Elevation
Unknown
Doppler factor
Unknown
Orbital elements
Apogee altitude
929.5 km
Perigee altitude
817.292 km
Semi-major axis
7,251.533 km
Eccentricity
0.00774
Inclination
98.7436°
RAAN
279.8334°
Arg. of periapsis
209.4664°
True anomaly
150.64996°
Mean anomaly
150.2132°
Eccentric anomaly
150.43195°
Mean motion
3.51478 °/min
Orbital period
102.42 mins
BSTAR
0.00064285
Loading maneuver chart data...
Computing Atmospheric mass density...
Loading historical data...
Loading historical data...
Loading historical data...
Loading historical data...
Loading historical data...
Loading historical data...
Loading historical data...

Documentation

Showing up to 5 results
|